Estación de Olmué

Ultimos registro cada 15 minutos 31
Estación Fecha / Hora Temperatura Humedad Lluvia Velocidad Dirección Radiación Presion
31 Olmué 05-05-2026 07:30 6,5 94,2 0 0 131 4,4 994
30 Olmué 05-05-2026 07:15 6,5 93,5 0 0 17 0,6 994,1
29 Olmué 05-05-2026 07:00 7 93,3 0 0 229 0,6 993,9
28 Olmué 05-05-2026 06:45 7,2 91,8 0 0 115 0,6 993,8
27 Olmué 05-05-2026 06:30 7,9 92,1 0 0 257 0,6 993,9
26 Olmué 05-05-2026 06:15 7,7 91,8 0 0 178 0,6 993,8
25 Olmué 05-05-2026 06:00 7,7 91,4 0 0 111 0,6 993,4
24 Olmué 05-05-2026 05:45 8 91,5 0 0 164 0,6 993,6
23 Olmué 05-05-2026 05:30 8,3 93,5 0 0 215 0,6 993,4
22 Olmué 05-05-2026 05:15 7,4 92,1 0 0 145 0,6 993,6
21 Olmué 05-05-2026 05:00 7,4 92,1 0 0 149 0,6 993,6
20 Olmué 05-05-2026 04:45 7,2 93,7 0 0 152 0,6 994,2
19 Olmué 05-05-2026 04:30 7 93,6 0 0 152 0,6 993,8
18 Olmué 05-05-2026 04:15 6,8 93,4 0 0 152 0,6 993,8
17 Olmué 05-05-2026 04:00 6,4 92,8 0 0 163 0,6 993,8
16 Olmué 05-05-2026 03:45 6,5 92,9 0 0 171 0,6 993,9
15 Olmué 05-05-2026 03:30 6,6 92,6 0 0 171 0,6 993,6
14 Olmué 05-05-2026 03:15 7 92,5 0 0 171 0,6 993,6
13 Olmué 05-05-2026 03:00 7,3 92,7 0 0 171 0,6 993,4
12 Olmué 05-05-2026 02:45 7,3 92,4 0 0 125 0,6 993,6
11 Olmué 05-05-2026 02:30 7,5 91 0 0 105 0,6 994
10 Olmué 05-05-2026 02:15 7,7 91,3 0 0 105 0,6 994,2
9 Olmué 05-05-2026 02:00 7,9 91,8 0 0 105 0,6 994,4
8 Olmué 05-05-2026 01:45 8 91,2 0 0 105 0,6 994,4
7 Olmué 05-05-2026 01:30 8,2 91,3 0 0 105 0,6 994,6
6 Olmué 05-05-2026 01:15 8,5 90,3 0 0 187 0,6 994,8
5 Olmué 05-05-2026 01:00 9,2 90,8 0 0 181 0,6 994,8
4 Olmué 05-05-2026 00:45 9,9 89,5 0 0 143 0,6 995
3 Olmué 05-05-2026 00:30 9,9 90,8 0 0 139 0,6 995,2
2 Olmué 05-05-2026 00:15 8,8 91,2 0 0 198 0,6 995,2
1 Olmué 05-05-2026 00:00 8,9 90,8 0 0 275 0,6 995